Location: Newark
(41.9000°N, 12.4833°E)
Time: 18:53:31
(UTC+00:00)

EO-88 - Pass Details

Date: 29 May 2019
Orbit: 484 x 494 km, 97.4° (Epoch: 17 June)

Event Time Altitude Azimuth Distance (km) Brightness Sun altitude
Exits shadow 19:54:12 16° 106° (ESE) 1,339 ? -12.3°
Maximum altitude 19:55:52 22° 69° (ENE) 1,118 ? -12.5°
Drops below altitude 10° 19:58:45 10° 17° (NNE) 1,699 ? -12.9°
Sets 20:01:08 0° 2° (N) 2,586 ? -13.2°
